Погода в Студенческом

Россия / Свердловская область     56°41′45″N   61°15′52″E
темп.,
°C
ветер,
м/с
пор.,
м/с
влажн.,
%
обл.,
%
осадки,
мм/ч
давл.,
гПа
погр.,
м
21 января, пт
пт2123:00−12юз27958 0.0 1021100
02:00−14юз28957 0.0 1022127
05:00−15юз279641 0.0 1023102
08:00−15юз26969 0.0 102277
11:00−12юз399353 0.0 1023234
14:00−7зюз3988100 0.0 1023382
17:00−10юз2495100 0.0 102460
20:00−12зюз3894100 0.0 1025148
22 января, сб
сб2223:00−15зюз259649 0.0 102667
02:00−15зюз2596100 0.0 102772
05:00−17зюз2298100 0.0 102821
08:00−18зюз119947 0.0 10299
11:00−12юз12925 0.0 103048
14:00−7ююз13855 0.0 1030152
17:00−13ююв229746 0.0 10319
20:00−17ююз229474 0.0 103328
23 января, вс
вс2323:00−18ююз119377 0.0 103411
02:00−20ююз119515 0.0 103510
05:00−21юз11967 0.0 103612
08:00−21ююз119854 0.0 10369
11:00−15ююз128578 0.0 103745
14:00−10ю227799 0.0 103799
17:00−15ю219483 0.0 10389
20:00−18ю2295100 0.0 103923
24 января, пн
пн2423:00−16ююз2194100 0.0 104030
02:00−17юз219699 0.0 104025
05:00−15ююз2294100 0.0 104033
08:00−13юз1293100 0.0 104035
11:00−10юз2285100 0.0 104059
14:00−5юз1284100 0.0 1038130
17:00−7юз1195100 0.0 103812
20:00−9з1196100 0.0 103830
25 января, вт
вт2523:00−9зсз3992100 0.0 1037216
02:00−8з3109288 0.2 1036353
05:00−13з399613 0.2 1035174
08:00−13з311959 0.0 1034212
11:00−11з3109384 0.0 1033283
14:00−8з41089100 0.0 1032376
17:00−8з4109099 0.0 1031347
20:00−10з3109351 0.0 1030252